Weather History for EKKA - January, 2013

Change the Weather History Date:

Tuesday, January 15, 2013

  Actual Average Record
Temperature  
Mean Temperature 18 °F -  
Max Temperature 27 °F 36 °F - (-1)
Min Temperature 8 °F 27 °F - (-1)
Degree Days  
Heating Degree Days 48    
Moisture  
Dew Point 20 °F    
Average Humidity 93    
Maximum Humidity 100    
Minimum Humidity 83    
Precipitation  
Precipitation 0.08 in - - ()
Sea Level Pressure  
Sea Level Pressure 29.81 in    
Wind  
Wind Speed 4 mph ()    
Max Wind Speed 9 mph    
Max Gust Speed -    
Visibility 1.2 miles    
Events Fog , Snow    
Averages and records for this station are not official NWS values.
T = Trace of Precipitation, MM = Missing Value Source: Averaged Metar Reports

Daily Weather History Graph

Daily Weather History Graph

Search for Another Location

Airport or City:

Trip Planner

Search our weather history database for the weather conditions in past years. The results will help you decide how hot, cold, wet, or windy it might be!

Date:

Astronomy

Jan. 15, 2013 Rise Set
Actual Time 8:46 AM CET 4:20 PM CET
Civil Twilight 8:01 AM CET 5:05 PM CET
Nautical Twilight 7:13 AM CET 5:53 PM CET
Astronomical Twilight 6:28 AM CET 6:37 PM CET
Moon 9:47 AM CET (1/15) 9:54 PM CET (1/15)
Length of Visible Light 9h 04m
Length of Day
7h 33m
Waxing Crescent, 17% of the Moon is Illuminated
Jan 15
Waxing Crescent
Jan 19
First Quarter
Jan 27
Full
Feb 3
Last Quarter
Feb 10
New

Hourly Weather History & Observations

Time (CET) Temp. Windchill Dew Point Humidity Pressure Visibility Wind Dir Wind Speed Gust Speed Precip Events Conditions
12:20 AM 24.8 °F 17.9 °F 23.0 °F 93% 29.83 in 1.6 mi NNE 5.8 mph - N/A Snow Light Snow
12:50 AM 24.8 °F 17.9 °F 23.0 °F 93% 29.83 in 1.2 mi NNE 5.8 mph - N/A Snow Light Snow
1:00 AM 25 °F - 23 °F 88% 29.85 in 1 mi North 5.8 mph - - Snow Light Snow
1:21 AM 24.8 °F 16.9 °F 23.0 °F 93% 29.80 in 0.9 mi North 6.9 mph - N/A Snow Light Snow
1:50 AM 24.8 °F 16.1 °F 23.0 °F 93% 29.80 in 0.8 mi North 8.1 mph - N/A Snow Light Snow
2:20 AM 24.8 °F 16.1 °F 24.8 °F 100% 29.80 in 0.7 mi North 8.1 mph - N/A Snow Light Snow
2:51 AM 26.6 °F 17.5 °F 24.8 °F 93% 29.80 in 0.7 mi North 9.2 mph - N/A Snow Snow
3:20 AM 26.6 °F 18.2 °F 24.8 °F 93% 29.77 in 1.1 mi NNE 8.1 mph - N/A Snow Snow
3:50 AM 26.6 °F 18.2 °F 26.6 °F 100% 29.77 in 1.1 mi NNE 8.1 mph - N/A Snow Light Snow
4:00 AM 27 °F - 26 °F 96% 29.79 in 1 mi NNE 8.1 mph - - Snow Light Snow
4:21 AM 26.6 °F 18.2 °F 26.6 °F 100% 29.77 in 0.7 mi NE 8.1 mph - N/A Snow Snow
4:50 AM 28.4 °F 23.3 °F 26.6 °F 93% 29.77 in 0.6 mi NE 4.6 mph - N/A Snow Snow
5:20 AM 28.4 °F 23.3 °F 26.6 °F 93% 29.74 in 0.9 mi ENE 4.6 mph - N/A Snow Light Snow
5:50 AM 26.6 °F 22.6 °F 26.6 °F 100% 29.74 in 1.2 mi ENE 3.5 mph - N/A Snow Light Snow
6:20 AM 26.6 °F 22.6 °F 26.6 °F 100% 29.74 in 1.6 mi East 3.5 mph - N/A Snow Light Snow
6:50 AM 26.6 °F - 26.6 °F 100% 29.77 in 1.9 mi East 2.3 mph - N/A Snow Light Snow
7:00 AM 27 °F - 26 °F 94% 29.78 in 2 mi ENE 2.3 mph - - Snow Light Snow
7:20 AM 26.6 °F - 26.6 °F 100% 29.74 in 1.9 mi ENE 2.3 mph - N/A Snow Light Snow
7:50 AM 26.6 °F - 24.8 °F 93% 29.77 in 1.9 mi NE 2.3 mph - N/A Snow Light Snow
8:20 AM 24.8 °F - 24.8 °F 100% 29.77 in 1.4 mi NE 2.3 mph - N/A Snow Light Snow
8:50 AM 24.8 °F - 24.8 °F 100% 29.77 in 1.1 mi ENE 2.3 mph - N/A Snow Light Snow
9:20 AM 24.8 °F - 24.8 °F 100% 29.77 in 1.9 mi ENE 2.3 mph - N/A Snow Light Snow
9:50 AM 24.8 °F - 24.8 °F 100% 29.77 in 1.9 mi NE 2.3 mph - N/A Snow Light Snow
10:00 AM 25 °F - 24 °F 94% 29.80 in 2 mi NE 2.3 mph - - Snow Light Snow
10:20 AM 23.0 °F - 23.0 °F 100% 29.77 in 1.9 mi North 2.3 mph - N/A   Mist
10:50 AM 26.6 °F - 26.6 °F 100% 29.80 in - NE 2.3 mph - N/A Fog Fog
11:20 AM 26.6 °F - 26.6 °F 100% 29.80 in - ENE 2.3 mph - N/A   Mist
11:50 AM 26.6 °F 22.6 °F 24.8 °F 93% 29.80 in - East 3.5 mph - N/A   Mist
12:20 PM 26.6 °F 22.6 °F 24.8 °F 93% 29.80 in 2.2 mi East 3.5 mph - N/A   Mist
12:50 PM 24.8 °F 19.1 °F 23.0 °F 93% 29.80 in 2.2 mi East 4.6 mph - N/A   Mist
1:00 PM 25 °F - 24 °F 94% 29.82 in 2 mi East 4.6 mph - -   Mist
1:20 PM 24.8 °F 20.5 °F 24.8 °F 100% 29.80 in 2.5 mi East 3.5 mph - N/A   Mist
1:50 PM 24.8 °F 20.5 °F 23.0 °F 93% 29.80 in 3.1 mi ESE 3.5 mph - N/A   Mist
2:20 PM 24.8 °F - 23.0 °F 93% 29.80 in 3.1 mi SE 2.3 mph - N/A   Partly Cloudy
2:50 PM 21.2 °F - 17.6 °F 86% 29.80 in 3.1 mi Calm Calm - N/A   Mist
3:20 PM 21.2 °F - 19.4 °F 93% 29.83 in 2.2 mi ENE 1.2 mph - N/A Fog Fog
3:50 PM 23.0 °F 18.4 °F 23.0 °F 100% 29.83 in 2.2 mi ESE 3.5 mph - N/A   Mostly Cloudy
4:00 PM 23 °F - 22 °F 94% 29.84 in 2 mi ESE 2.3 mph - -   Mist
4:20 PM 23.0 °F - 21.2 °F 93% 29.83 in 2.5 mi Calm Calm - N/A   Partly Cloudy
4:50 PM 17.6 °F - 14.0 °F 86% 29.83 in 0.1 mi Calm Calm - N/A Fog Light Freezing Fog
5:20 PM 17.6 °F - 15.8 °F 93% 29.83 in 0.2 mi Calm Calm - N/A Fog Patches of Fog
5:50 PM 10.4 °F - 6.8 °F 85% 29.83 in 0.1 mi North 1.2 mph - N/A Fog Light Freezing Fog
6:20 PM 12.2 °F - 8.6 °F 85% 29.83 in 0.1 mi NNE 2.3 mph - N/A Fog Light Freezing Fog
6:51 PM 12.2 °F - 10.4 °F 92% 29.83 in 0.1 mi East 1.2 mph - N/A Fog Light Freezing Fog
7:00 PM 12 °F - 10 °F 85% 29.87 in 0 mi ENE 1.2 mph - - Fog Fog
7:20 PM 10.4 °F - 8.6 °F 92% 29.83 in 0.1 mi ESE 2.3 mph - N/A Fog Light Freezing Fog
7:50 PM 10.4 °F - 6.8 °F 85% 29.86 in 0.1 mi ESE 1.2 mph - N/A Fog Light Freezing Fog
8:20 PM 10.4 °F - 6.8 °F 85% 29.86 in 0.1 mi ESE 1.2 mph - N/A Fog Light Freezing Fog
8:51 PM 10.4 °F - 6.8 °F 85% 29.86 in 0.1 mi ESE 1.2 mph - N/A Fog Light Freezing Fog
9:20 PM 8.6 °F - 6.8 °F 92% 29.86 in 0.1 mi East 1.2 mph - N/A Fog Patches of Fog
9:50 PM 8.6 °F - 5.0 °F 85% 29.86 in 0.1 mi Calm Calm - N/A Fog Light Freezing Fog
10:00 PM 8 °F - 5 °F 83% 29.90 in 0 mi Calm Calm - - Fog Fog
10:22 PM 10.4 °F - 6.8 °F 85% 29.86 in 0.1 mi ESE 1.2 mph - N/A Fog Light Freezing Fog
10:51 PM 8.6 °F - 6.8 °F 92% 29.86 in 0.1 mi Calm Calm - N/A Fog Light Freezing Fog
11:20 PM 12.2 °F - 8.6 °F 85% 29.89 in 0.9 mi Calm Calm - N/A   Mostly Cloudy
11:50 PM 14.0 °F - 10.4 °F 86% 29.86 in 1.2 mi Calm Calm - N/A   Scattered Clouds